• In Russia
  • List of Countries
  • For 7 days
  • Water Temperature
  • Satellite Maps
  • Weather Map
  • Weather Widgets
  • user-avatar
    Login

    Hourly Weather Berat

    Today, 5 December, Monday

    Time Temperature Precipitation Wind Pressure Humidity
    00:00 +6°C° 0 mm 2 mps 752 mmHg 82%
    01:00 +6°C° 0 mm 2 mps 752 mmHg 81%
    02:00 +6°C° 0 mm 2 mps 752 mmHg 81%
    03:00 +6°C° 0 mm 2 mps 752 mmHg 81%
    04:00 +6°C° 0 mm 2 mps 753 mmHg 80%
    05:00 +6°C° 0 mm 2 mps 753 mmHg 80%
    06:00 +6°C° 0 mm 2 mps 753 mmHg 81%
    07:00 +6°C° 0 mm 2 mps 753 mmHg 79%
    08:00 +8°C° 0 mm 2 mps 753 mmHg 74%
    09:00 +9°C° 0 mm 2 mps 753 mmHg 69%
    10:00 +12°C° 0 mm 2 mps 754 mmHg 64%
    11:00 +13°C° 0 mm 2 mps 753 mmHg 62%
    12:00 +14°C° 0 mm 1 mps 753 mmHg 60%
    13:00 +14°C° 0 mm 1 mps 753 mmHg 63%
    14:00 +13°C° 0 mm 1 mps 753 mmHg 69%
    15:00 +12°C° 0 mm 1 mps 753 mmHg 74%
    16:00 +11°C° 0 mm 1 mps 753 mmHg 80%
    17:00 +11°C° 0 mm 1 mps 753 mmHg 80%
    18:00 +10°C° 0 mm 1 mps 754 mmHg 80%
    19:00 +10°C° 0 mm 1 mps 754 mmHg 81%
    20:00 +9°C° 0 mm 2 mps 754 mmHg 81%
    21:00 +8°C° 0 mm 2 mps 754 mmHg 82%
    22:00 +8°C° 0 mm 2 mps 754 mmHg 82%
    23:00 +8°C° 0 mm 2 mps 754 mmHg 82%

    Tomorrow, 6 December, Tuesday

    Time Temperature Precipitation Wind Pressure Humidity
    00:00 +8°C° 0 mm 2 mps 754 mmHg 82%
    01:00 +8°C° 0 mm 2 mps 754 mmHg 82%
    02:00 +7°C° 0 mm 2 mps 753 mmHg 83%
    03:00 +7°C° 0 mm 2 mps 753 mmHg 83%
    04:00 +8°C° 0 mm 1 mps 753 mmHg 83%
    05:00 +8°C° 0 mm 1 mps 753 mmHg 84%
    06:00 +8°C° 0 mm 1 mps 753 mmHg 85%
    07:00 +8°C° 0 mm 1 mps 752 mmHg 85%
    08:00 +10°C° 0 mm 1 mps 753 mmHg 80%
    09:00 +12°C° 0 mm 1 mps 753 mmHg 75%
    10:00 +13°C° 0 mm 1 mps 753 mmHg 70%
    11:00 +14°C° 0 mm 1 mps 752 mmHg 70%
    12:00 +14°C° 0 mm 1 mps 752 mmHg 69%
    13:00 +14°C° 0 mm 1 mps 752 mmHg 69%
    14:00 +13°C° 0 mm 1 mps 752 mmHg 74%
    15:00 +12°C° 0 mm 1 mps 752 mmHg 80%
    16:00 +11°C° 0 mm 1 mps 752 mmHg 86%
    17:00 +10°C° 0 mm 1 mps 752 mmHg 88%
    18:00 +9°C° 0 mm 1 mps 752 mmHg 89%
    19:00 +9°C° 0 mm 1 mps 752 mmHg 91%
    20:00 +9°C° 0 mm 1 mps 752 mmHg 91%
    21:00 +8°C° 0 mm 1 mps 752 mmHg 90%
    22:00 +8°C° 0 mm 1 mps 752 mmHg 90%
    23:00 +8°C° 0 mm 1 mps 752 mmHg 90%

    Day after tomorrow, 7 December, Wednesday

    Time Temperature Precipitation Wind Pressure Humidity
    00:00 +8°C° 0 mm 1 mps 753 mmHg 89%
    01:00 +8°C° 0 mm 1 mps 753 mmHg 88%
    02:00 +8°C° 0 mm 1 mps 753 mmHg 88%
    03:00 +8°C° 0 mm 1 mps 753 mmHg 88%
    04:00 +8°C° 0 mm 1 mps 752 mmHg 88%
    05:00 +8°C° 0 mm 1 mps 753 mmHg 88%
    06:00 +7°C° 0 mm 1 mps 753 mmHg 87%
    07:00 +7°C° 0 mm 1 mps 753 mmHg 87%
    08:00 +8°C° 0 mm 2 mps 754 mmHg 80%
    09:00 +10°C° 0 mm 2 mps 754 mmHg 73%
    10:00 +13°C° 0 mm 2 mps 755 mmHg 66%
    11:00 +13°C° 0 mm 2 mps 754 mmHg 62%
    12:00 +14°C° 0 mm 2 mps 754 mmHg 58%
    13:00 +15°C° 0 mm 2 mps 754 mmHg 54%
    14:00 +13°C° 0 mm 2 mps 754 mmHg 59%
    15:00 +12°C° 0 mm 2 mps 755 mmHg 63%
    16:00 +9°C° 0 mm 2 mps 755 mmHg 68%
    17:00 +8°C° 0 mm 2 mps 755 mmHg 69%
    18:00 +8°C° 0 mm 2 mps 756 mmHg 69%
    19:00 +7°C° 0 mm 2 mps 756 mmHg 70%
    20:00 +6°C° 0 mm 2 mps 757 mmHg 69%
    21:00 +5°C° 0 mm 3 mps 757 mmHg 69%
    22:00 +5°C° 0 mm 3 mps 758 mmHg 69%
    23:00 +5°C° 0 mm 3 mps 758 mmHg 69%

    8 December, Thursday

    Time Temperature Precipitation Wind Pressure Humidity
    00:00 +4°C° 0 mm 3 mps 758 mmHg 69%
    01:00 +4°C° 0 mm 3 mps 758 mmHg 70%
    02:00 +4°C° 0 mm 3 mps 758 mmHg 70%
    03:00 +4°C° 0 mm 3 mps 758 mmHg 70%
    04:00 +4°C° 0 mm 3 mps 758 mmHg 71%
    05:00 +5°C° 0 mm 2 mps 758 mmHg 71%
    06:00 +4°C° 0 mm 2 mps 758 mmHg 71%
    07:00 +4°C° 0 mm 2 mps 759 mmHg 71%
    08:00 +6°C° 0 mm 2 mps 759 mmHg 65%
    09:00 +8°C° 0 mm 2 mps 759 mmHg 59%
    10:00 +10°C° 0 mm 2 mps 759 mmHg 53%
    11:00 +12°C° 0 mm 1 mps 759 mmHg 50%
    12:00 +13°C° 0 mm 1 mps 758 mmHg 47%
    13:00 +14°C° 0 mm 0 mps 758 mmHg 44%
    14:00 +13°C° 0 mm 1 mps 758 mmHg 52%
    15:00 +11°C° 0 mm 1 mps 757 mmHg 60%
    16:00 +9°C° 0 mm 1 mps 757 mmHg 69%
    17:00 +8°C° 0 mm 1 mps 757 mmHg 70%
    18:00 +7°C° 0 mm 1 mps 757 mmHg 71%
    19:00 +6°C° 0 mm 1 mps 757 mmHg 72%
    20:00 +6°C° 0 mm 1 mps 757 mmHg 70%
    21:00 +6°C° 0 mm 1 mps 757 mmHg 67%
    22:00 +5°C° 0 mm 0 mps 757 mmHg 65%
    23:00 +6°C° 0 mm 1 mps 757 mmHg 62%

    9 December, Friday

    Time Temperature Precipitation Wind Pressure Humidity
    00:00 +5°C° 0 mm 1 mps 757 mmHg 59%
    01:00 +5°C° 0 mm 1 mps 757 mmHg 55%
    02:00 +5°C° 0 mm 1 mps 756 mmHg 53%
    03:00 +5°C° 0 mm 1 mps 756 mmHg 50%
    04:00 +5°C° 0 mm 1 mps 756 mmHg 47%
    05:00 +5°C° 0 mm 1 mps 756 mmHg 45%
    06:00 +5°C° 0 mm 1 mps 756 mmHg 43%
    07:00 +5°C° 0 mm 1 mps 756 mmHg 41%
    08:00 +8°C° 0 mm 1 mps 756 mmHg 37%
    09:00 +10°C° 0 mm 1 mps 756 mmHg 32%
    10:00 +13°C° 0 mm 1 mps 756 mmHg 28%
    11:00 +13°C° 0 mm 1 mps 755 mmHg 31%
    12:00 +14°C° 0 mm 2 mps 755 mmHg 33%
    13:00 +14°C° 0 mm 2 mps 754 mmHg 36%
    14:00 +12°C° 0 mm 2 mps 754 mmHg 46%
    15:00 +9°C° 0 mm 2 mps 754 mmHg 55%
    16:00 +7°C° 0 mm 2 mps 754 mmHg 65%
    17:00 +6°C° 0 mm 2 mps 754 mmHg 65%
    18:00 +6°C° 0 mm 2 mps 754 mmHg 65%
    19:00 +5°C° 0 mm 2 mps 754 mmHg 65%
    20:00 +5°C° 0 mm 2 mps 754 mmHg 62%
    21:00 +5°C° 0 mm 2 mps 754 mmHg 59%
    22:00 +5°C° 0 mm 2 mps 754 mmHg 55%
    23:00 +5°C° 0 mm 2 mps 754 mmHg 53%

    10 December, Saturday

    Time Temperature Precipitation Wind Pressure Humidity
    00:00 +5°C° 0 mm 2 mps 754 mmHg 51%
    01:00 +5°C° 0 mm 2 mps 753 mmHg 48%
    02:00 +5°C° 0 mm 2 mps 753 mmHg 47%
    03:00 +5°C° 0 mm 2 mps 753 mmHg 45%
    04:00 +5°C° 0 mm 2 mps 752 mmHg 43%
    05:00 +5°C° 0 mm 2 mps 752 mmHg 42%
    06:00 +5°C° 0 mm 2 mps 752 mmHg 42%
    07:00 +5°C° 0 mm 2 mps 753 mmHg 41%
    08:00 +8°C° 0 mm 2 mps 753 mmHg 40%
    09:00 +12°C° 0 mm 2 mps 753 mmHg 38%
    10:00 +14°C° 0 mm 1 mps 753 mmHg 37%
    11:00 +15°C° 0 mm 1 mps 753 mmHg 38%
    12:00 +16°C° 0 mm 1 mps 752 mmHg 39%
    13:00 +18°C° 0 mm 1 mps 752 mmHg 39%
    14:00 +14°C° 0 mm 1 mps 752 mmHg 49%
    15:00 +12°C° 0 mm 1 mps 752 mmHg 58%
    16:00 +9°C° 0 mm 1 mps 752 mmHg 67%
    17:00 +9°C° 0 mm 1 mps 752 mmHg 70%
    18:00 +8°C° 0 mm 1 mps 752 mmHg 72%
    19:00 +7°C° 0 mm 0 mps 752 mmHg 74%
    20:00 +6°C° 0 mm 0 mps 752 mmHg 75%
    21:00 +6°C° 0 mm 0 mps 752 mmHg 76%
    22:00 +6°C° 0 mm 0 mps 752 mmHg 77%
    23:00 +6°C° 0 mm 0 mps 752 mmHg 77%
    Show more